CHB6833 ZLLL-ZLDH

Flight info

Callsign CHB6833
Flight time N/A
Altitude 27600
Route LELUX B215 TODOD
Aircraft A320/M-SDE3FGHIRWY/LB1

Departure

Time 2026-04-12 04:08
Airport Lanzhou Zhongchuan International Airport (ZLLL)

Arrival

Time N/A
Airport Dunhuang Mogao International Airport (ZLDH)
Time Latitude Longitude Altitude Speed Heading
2026-04-12 03:53 36.52197 103.63893 6375 ft 0 kts 218°
2026-04-12 03:58 36.52207 103.63902 6367 ft 3 kts 217°
2026-04-12 03:59 36.52223 103.63917 6366 ft 3 kts 216°
2026-04-12 03:59 36.52240 103.63932 6368 ft 3 kts 217°
2026-04-12 03:59 36.52254 103.63946 6372 ft 3 kts 206°
2026-04-12 03:59 36.52269 103.63951 6369 ft 3 kts 147°
2026-04-12 04:00 36.52283 103.63934 6372 ft 3 kts 124°
2026-04-12 04:00 36.52291 103.63920 6368 ft 1 kts 130°
2026-04-12 04:02 36.52259 103.63970 6367 ft 9 kts 127°
2026-04-12 04:02 36.52212 103.64047 6369 ft 14 kts 127°
2026-04-12 04:03 36.52153 103.64155 6365 ft 16 kts 108°
2026-04-12 04:03 36.52156 103.64293 6374 ft 16 kts 91°
2026-04-12 04:03 36.52068 103.64351 6368 ft 15 kts 174°
2026-04-12 04:03 36.51958 103.64347 6370 ft 17 kts 182°
2026-04-12 04:04 36.51831 103.64352 6363 ft 19 kts 177°
2026-04-12 04:04 36.51742 103.64356 6361 ft 20 kts 179°
2026-04-12 04:04 36.51546 103.64371 6360 ft 22 kts 176°
2026-04-12 04:04 36.51441 103.64377 6358 ft 23 kts 177°
2026-04-12 04:05 36.51278 103.64388 6355 ft 22 kts 177°
2026-04-12 04:05 36.51069 103.64402 6352 ft 24 kts 177°
2026-04-12 04:05 36.50955 103.64409 6354 ft 25 kts 177°
2026-04-12 04:05 36.50731 103.64423 6350 ft 23 kts 177°
2026-04-12 04:06 36.50586 103.64433 6348 ft 21 kts 177°
2026-04-12 04:06 36.50447 103.64441 6345 ft 18 kts 176°
2026-04-12 04:06 36.50375 103.64472 6344 ft 15 kts 112°
2026-04-12 04:06 36.50377 103.64606 6342 ft 16 kts 78°
2026-04-12 04:07 36.50498 103.64640 6345 ft 14 kts 357°
2026-04-12 04:07 36.50573 103.64634 6346 ft 23 kts 357°
2026-04-12 04:07 36.50974 103.64611 6356 ft 91 kts 358°
2026-04-12 04:07 36.51795 103.64554 6360 ft 144 kts 357°
2026-04-12 04:08 36.52940 103.64491 6475 ft 178 kts 359°
2026-04-12 04:08 36.54194 103.64412 7100 ft 183 kts 359°
2026-04-12 04:08 36.55444 103.64606 7789 ft 182 kts 24°
2026-04-12 04:08 36.56589 103.65307 8330 ft 188 kts 31°
2026-04-12 04:09 36.57784 103.66182 8498 ft 211 kts 32°
2026-04-12 04:09 36.59109 103.67172 8657 ft 235 kts 31°
2026-04-12 04:09 36.60586 103.68255 9019 ft 255 kts 31°
2026-04-12 04:09 36.62145 103.69368 9742 ft 261 kts 30°
2026-04-12 04:10 36.63734 103.70477 10509 ft 263 kts 30°
2026-04-12 04:10 36.65346 103.71583 11258 ft 266 kts 29°
2026-04-12 04:10 36.67043 103.72525 11959 ft 271 kts 13°
2026-04-12 04:10 36.68985 103.72704 12273 ft 292 kts
2026-04-12 04:11 36.71101 103.72681 12472 ft 316 kts 360°
2026-04-12 04:11 36.73378 103.72601 12640 ft 339 kts 359°
2026-04-12 04:11 36.75820 103.72499 12774 ft 361 kts 359°
2026-04-12 04:11 36.78406 103.72396 12904 ft 382 kts 359°
2026-04-12 04:12 36.81120 103.72303 13141 ft 396 kts 359°
2026-04-12 04:12 36.83899 103.72155 13632 ft 403 kts 353°
2026-04-12 04:12 36.86616 103.71263 14133 ft 408 kts 338°
2026-04-12 04:12 36.89063 103.69435 14620 ft 413 kts 321°
2026-04-12 04:13 36.91050 103.66828 15122 ft 417 kts 309°
2026-04-12 04:13 36.92895 103.64010 15640 ft 421 kts 309°
2026-04-12 04:13 36.94751 103.61163 16147 ft 424 kts 309°
2026-04-12 04:13 36.96593 103.58333 16638 ft 427 kts 309°
2026-04-12 04:14 36.98474 103.55443 17116 ft 431 kts 308°
2026-04-12 04:14 37.00373 103.52520 17598 ft 434 kts 308°
2026-04-12 04:14 37.02284 103.49579 18063 ft 437 kts 308°
2026-04-12 04:14 37.04209 103.46618 18516 ft 441 kts 308°
2026-04-12 04:15 37.06156 103.43628 18926 ft 443 kts 308°
2026-04-12 04:15 37.08111 103.40627 19337 ft 446 kts 308°
2026-04-12 04:15 37.10074 103.37613 19750 ft 448 kts 308°
2026-04-12 04:15 37.12046 103.34578 20160 ft 450 kts 307°
2026-04-12 04:16 37.13964 103.31470 20557 ft 451 kts 302°
2026-04-12 04:16 37.15512 103.28051 20948 ft 451 kts 293°
2026-04-12 04:16 37.16615 103.24377 21313 ft 451 kts 285°
2026-04-12 04:16 37.17512 103.20605 21671 ft 453 kts 285°
2026-04-12 04:17 37.18426 103.16819 22033 ft 455 kts 285°
2026-04-12 04:17 37.19351 103.13016 22387 ft 457 kts 285°
2026-04-12 04:17 37.20280 103.09201 22741 ft 458 kts 285°
2026-04-12 04:17 37.21212 103.05367 23100 ft 460 kts 285°
2026-04-12 04:18 37.22143 103.01518 23430 ft 462 kts 285°
2026-04-12 04:18 37.23078 102.97648 23732 ft 464 kts 285°
2026-04-12 04:18 37.24013 102.93764 24000 ft 466 kts 285°
2026-04-12 04:18 37.24949 102.89868 24277 ft 467 kts 285°
2026-04-12 04:19 37.25873 102.86009 24552 ft 468 kts 285°
2026-04-12 04:19 37.26810 102.82087 24836 ft 469 kts 285°
2026-04-12 04:19 37.27744 102.78170 25228 ft 467 kts 285°
2026-04-12 04:19 37.28675 102.74274 25633 ft 465 kts 285°
2026-04-12 04:20 37.29602 102.70392 26016 ft 464 kts 285°
2026-04-12 04:20 37.30525 102.66511 26418 ft 462 kts 285°
2026-04-12 04:20 37.31443 102.62642 26834 ft 461 kts 285°
2026-04-12 04:20 37.32353 102.58791 27243 ft 459 kts 285°
2026-04-12 04:21 37.33260 102.54946 27618 ft 459 kts 285°
2026-04-12 04:21 37.34162 102.51107 27730 ft 460 kts 284°
2026-04-12 04:21 37.35071 102.47235 27742 ft 463 kts 284°
2026-04-12 04:21 37.35979 102.43341 27742 ft 464 kts 284°
2026-04-12 04:22 37.36829 102.39433 27741 ft 464 kts 283°
2026-04-12 04:22 37.37617 102.35500 27741 ft 464 kts 282°
2026-04-12 04:22 37.38366 102.31551 27741 ft 464 kts 281°
2026-04-12 04:22 37.39102 102.27598 27742 ft 464 kts 281°
2026-04-12 04:23 37.39840 102.23651 27740 ft 464 kts 281°
2026-04-12 04:23 37.40590 102.19708 27743 ft 464 kts 282°
2026-04-12 04:23 37.41355 102.15763 27738 ft 464 kts 282°
2026-04-12 04:23 37.42127 102.11824 27735 ft 464 kts 282°
2026-04-12 04:24 37.42901 102.07889 27734 ft 464 kts 282°
2026-04-12 04:24 37.43673 102.03946 27726 ft 464 kts 282°
2026-04-12 04:24 37.44439 102.00006 27723 ft 463 kts 282°
2026-04-12 04:24 37.45202 101.96065 27725 ft 464 kts 282°
2026-04-12 04:25 37.45962 101.92121 27720 ft 464 kts 282°
2026-04-12 04:25 37.46723 101.88175 27719 ft 464 kts 282°
2026-04-12 04:25 37.47483 101.84234 27711 ft 464 kts 282°
2026-04-12 04:25 37.48240 101.80286 27713 ft 464 kts 281°
2026-04-12 04:26 37.48983 101.76391 27705 ft 464 kts 282°
2026-04-12 04:26 37.49744 101.72399 27704 ft 463 kts 281°
2026-04-12 04:26 37.50652 101.68503 27704 ft 465 kts 289°
2026-04-12 04:26 37.51982 101.64836 27703 ft 467 kts 295°
2026-04-12 04:27 37.53469 101.61195 27695 ft 467 kts 295°
2026-04-12 04:27 37.54950 101.57555 27696 ft 467 kts 295°
2026-04-12 04:27 37.56428 101.53906 27697 ft 467 kts 295°
2026-04-12 04:27 37.57900 101.50258 27698 ft 467 kts 295°
2026-04-12 04:28 37.59370 101.46608 27695 ft 467 kts 294°
2026-04-12 04:28 37.60841 101.42954 27690 ft 467 kts 294°
2026-04-12 04:28 37.62308 101.39306 27691 ft 467 kts 294°
2026-04-12 04:28 37.63772 101.35656 27692 ft 466 kts 294°
2026-04-12 04:29 37.65234 101.32008 27688 ft 466 kts 294°
2026-04-12 04:29 37.66733 101.28376 27691 ft 467 kts 296°
2026-04-12 04:29 37.68295 101.24788 27692 ft 467 kts 297°
2026-04-12 04:29 37.69901 101.21217 27691 ft 467 kts 297°
2026-04-12 04:30 37.71520 101.17661 27686 ft 467 kts 297°
2026-04-12 04:30 37.73135 101.14105 27689 ft 467 kts 297°
2026-04-12 04:30 37.74737 101.10542 27689 ft 466 kts 297°
2026-04-12 04:30 37.76324 101.06966 27685 ft 466 kts 297°
2026-04-12 04:31 37.77898 101.03383 27682 ft 466 kts 296°
2026-04-12 04:31 37.79468 100.99793 27684 ft 466 kts 296°
2026-04-12 04:31 37.81030 100.96213 27681 ft 466 kts 296°
2026-04-12 04:31 37.82600 100.92622 27686 ft 466 kts 297°
2026-04-12 04:32 37.84170 100.89035 27685 ft 466 kts 296°
2026-04-12 04:32 37.85732 100.85445 27687 ft 466 kts 296°
2026-04-12 04:32 37.87287 100.81848 27688 ft 466 kts 296°
2026-04-12 04:32 37.88840 100.78246 27690 ft 466 kts 296°
2026-04-12 04:33 37.90391 100.74645 27690 ft 466 kts 296°
2026-04-12 04:33 37.91941 100.71038 27688 ft 465 kts 296°
2026-04-12 04:33 37.93485 100.67444 27690 ft 465 kts 296°
2026-04-12 04:33 37.95032 100.63844 27689 ft 465 kts 296°
2026-04-12 04:34 37.96578 100.60243 27686 ft 465 kts 296°
2026-04-12 04:34 37.98125 100.56644 27688 ft 465 kts 296°
2026-04-12 04:34 37.99672 100.53044 27685 ft 465 kts 296°
2026-04-12 04:34 38.01219 100.49438 27682 ft 465 kts 296°
2026-04-12 04:35 38.02761 100.45833 27682 ft 465 kts 296°
2026-04-12 04:35 38.04298 100.42232 27680 ft 465 kts 296°
2026-04-12 04:35 38.05836 100.38625 27680 ft 465 kts 296°
2026-04-12 04:35 38.07374 100.35019 27674 ft 465 kts 296°
2026-04-12 04:36 38.08914 100.31408 27673 ft 465 kts 296°
2026-04-12 04:36 38.10452 100.27798 27670 ft 464 kts 296°
2026-04-12 04:36 38.11986 100.24192 27669 ft 464 kts 296°
2026-04-12 04:36 38.13517 100.20583 27667 ft 464 kts 296°
2026-04-12 04:37 38.15050 100.16969 27668 ft 464 kts 296°
2026-04-12 04:37 38.16578 100.13361 27659 ft 464 kts 296°
2026-04-12 04:37 38.18105 100.09750 27662 ft 464 kts 296°
2026-04-12 04:37 38.19633 100.06133 27662 ft 464 kts 296°
2026-04-12 04:38 38.21158 100.02518 27659 ft 464 kts 296°
2026-04-12 04:38 38.22686 99.98907 27657 ft 464 kts 296°
2026-04-12 04:38 38.24241 99.95317 27655 ft 464 kts 297°
2026-04-12 04:38 38.25824 99.91729 27657 ft 464 kts 297°
2026-04-12 04:39 38.27412 99.88159 27656 ft 464 kts 297°
2026-04-12 04:39 38.29004 99.84580 27656 ft 464 kts 297°
2026-04-12 04:39 38.30585 99.81002 27660 ft 464 kts 297°
2026-04-12 04:39 38.32162 99.77415 27662 ft 464 kts 297°
2026-04-12 04:40 38.33712 99.73873 27656 ft 464 kts 297°
2026-04-12 04:40 38.35278 99.70279 27656 ft 464 kts 296°
2026-04-12 04:40 38.36841 99.66685 27659 ft 464 kts 296°
2026-04-12 04:40 38.38405 99.63088 27660 ft 464 kts 297°
2026-04-12 04:41 38.39966 99.59495 27656 ft 464 kts 296°
2026-04-12 04:41 38.41525 99.55895 27657 ft 464 kts 296°
2026-04-12 04:41 38.43082 99.52298 27658 ft 464 kts 296°
2026-04-12 04:41 38.44645 99.48689 27658 ft 464 kts 297°
2026-04-12 04:42 38.46206 99.45090 27656 ft 464 kts 297°
2026-04-12 04:42 38.47769 99.41484 27657 ft 464 kts 297°
2026-04-12 04:42 38.49331 99.37879 27653 ft 464 kts 297°
2026-04-12 04:43 38.52452 99.30666 27655 ft 464 kts 297°
2026-04-12 04:43 38.54010 99.27055 27652 ft 464 kts 297°
2026-04-12 04:43 38.55566 99.23436 27654 ft 464 kts 296°
2026-04-12 04:43 38.57116 99.19817 27648 ft 465 kts 296°
2026-04-12 04:44 38.58665 99.16193 27644 ft 465 kts 296°
2026-04-12 04:44 38.60216 99.12565 27649 ft 465 kts 297°
2026-04-12 04:44 38.61769 99.08938 27648 ft 465 kts 297°
2026-04-12 04:44 38.63325 99.05306 27644 ft 465 kts 296°
2026-04-12 04:45 38.64876 99.01675 27648 ft 466 kts 296°
2026-04-12 04:45 38.66425 98.98041 27646 ft 466 kts 296°
2026-04-12 04:45 38.67976 98.94399 27651 ft 466 kts 296°
2026-04-12 04:45 38.69525 98.90757 27652 ft 466 kts 296°
2026-04-12 04:46 38.71074 98.87110 27645 ft 466 kts 296°
2026-04-12 04:46 38.72625 98.83461 27650 ft 466 kts 296°
2026-04-12 04:46 38.74176 98.79810 27650 ft 467 kts 296°
2026-04-12 04:46 38.75722 98.76161 27650 ft 466 kts 296°
2026-04-12 04:47 38.77270 98.72500 27649 ft 467 kts 296°
2026-04-12 04:47 38.78814 98.68847 27646 ft 466 kts 296°
2026-04-12 04:47 38.80359 98.65187 27649 ft 466 kts 296°
2026-04-12 04:47 38.81901 98.61535 27648 ft 466 kts 296°
2026-04-12 04:48 38.83447 98.57871 27648 ft 466 kts 296°
2026-04-12 04:48 38.84990 98.54215 27651 ft 466 kts 296°
2026-04-12 04:48 38.86534 98.50548 27648 ft 466 kts 296°
2026-04-12 04:48 38.88068 98.46889 27651 ft 466 kts 296°
2026-04-12 04:49 38.89581 98.43271 27648 ft 466 kts 296°
2026-04-12 04:49 38.91109 98.39608 27647 ft 465 kts 296°
2026-04-12 04:49 38.92636 98.35949 27647 ft 465 kts 296°
2026-04-12 04:49 38.94169 98.32287 27647 ft 465 kts 296°
2026-04-12 04:50 38.95701 98.28630 27644 ft 465 kts 296°
2026-04-12 04:50 38.97233 98.24965 27645 ft 465 kts 296°
2026-04-12 04:50 38.98759 98.21305 27648 ft 465 kts 296°
2026-04-12 04:50 39.00283 98.17642 27649 ft 464 kts 296°
2026-04-12 04:51 39.01802 98.13977 27647 ft 464 kts 296°
2026-04-12 04:51 39.03319 98.10310 27651 ft 464 kts 296°
2026-04-12 04:51 39.04838 98.06643 27653 ft 464 kts 296°
2026-04-12 04:51 39.06356 98.02976 27649 ft 464 kts 296°
2026-04-12 04:52 39.07870 97.99315 27653 ft 464 kts 296°
2026-04-12 04:52 39.09387 97.95643 27648 ft 464 kts 296°
2026-04-12 04:52 39.10898 97.91978 27642 ft 463 kts 296°
2026-04-12 04:52 39.12408 97.88312 27647 ft 463 kts 296°
2026-04-12 04:53 39.13406 97.85884 27643 ft 463 kts 296°
2026-04-12 04:53 39.14915 97.82214 27648 ft 464 kts 296°
2026-04-12 04:53 39.17929 97.74864 27651 ft 464 kts 296°
2026-04-12 04:54 39.19434 97.71188 27655 ft 463 kts 296°
2026-04-12 04:54 39.20936 97.67511 27662 ft 463 kts 296°
2026-04-12 04:54 39.21017 97.67313 27663 ft 463 kts 296°